Date String (YYYY-MM-DD hh:mm:ss) UTC,Instrument flags,Ambient pressure (hPa),Sample flow (lpm),Bypass flow (lpm),Sample temperature (°C),Ambient temperature (°C),ASC tube jacket temperature (°C),LED temperature (°C),Box temperature (°C),Sample RH (%),Span deviation,Mass concentration (μg/m³),Mass concentration (μg/m³),Mass concentration (μg/m³)
DateTimeUTC,F1_M11,P_M11,Q1_M11,Q2_M11,T1_M11,T2_M11,T3_M11,T4_M11,T5_M11,U1_M11,ZSPAN_M11,X0_M11,X2_M11,X1_M11
2021-10-25 17:00:00,,0822.1,5.00,0.00,27.0,26.3,00.0,36.0,28.8,14.8,0000.0,0011.35,0004.64,0003.53
2021-10-25 17:01:00,,0822.1,5.00,0.00,27.0,26.3,00.0,36.0,28.9,14.8,0000.0,0011.68,0004.62,0003.53
2021-10-25 17:02:00,,0822.1,5.01,0.00,27.0,26.3,00.0,36.0,28.8,14.8,0000.0,0012.37,0004.62,0003.53
2021-10-25 17:03:00,,0822.0,5.00,0.00,27.0,26.3,00.0,36.0,28.8,14.7,0000.0,0012.89,0004.60,0003.55
2021-10-25 17:04:00,,0821.9,5.00,0.00,27.0,26.3,00.0,36.0,28.8,14.8,0000.0,0013.08,0004.61,0003.56
2021-10-25 17:05:00,,0822.0,5.00,0.00,27.0,26.3,00.0,36.0,28.8,14.7,0000.0,0013.70,0004.64,0003.57
2021-10-25 17:06:00,,0821.9,5.00,0.00,27.0,26.3,00.0,36.0,28.8,14.5,0000.0,0013.90,0004.65,0003.59
2021-10-25 17:07:00,,0821.8,4.99,0.00,27.0,26.3,00.0,36.0,28.8,14.6,0000.0,0013.86,0004.69,0003.62
2021-10-25 17:08:00,,0821.9,5.00,0.00,27.0,26.3,00.0,36.0,28.8,14.7,0000.0,0013.70,0004.67,0003.64
2021-10-25 17:09:00,,0821.9,5.00,0.00,27.1,26.3,00.0,36.1,28.9,14.6,0000.0,0013.81,0004.64,0003.66
2021-10-25 17:10:00,,0821.9,5.00,0.00,27.1,26.3,00.0,36.1,28.9,14.3,0000.0,0013.22,0004.64,0003.68
2021-10-25 17:11:00,,0822.0,5.00,0.00,27.1,26.3,00.0,36.1,28.9,14.5,0000.0,0013.36,0004.64,0003.70
2021-10-25 17:12:00,,0821.9,5.01,0.00,27.1,26.3,00.0,36.1,28.9,14.7,0000.0,0013.52,0004.72,0003.74
2021-10-25 17:13:00,,0822.0,5.01,0.00,27.1,26.3,00.0,36.1,28.9,14.7,0000.0,0013.78,0004.74,0003.76
2021-10-25 17:14:00,,0822.0,4.99,0.00,27.1,26.3,00.0,36.1,28.9,14.5,0000.0,0014.40,0004.79,0003.80
2021-10-25 17:15:00,,0821.8,5.00,0.00,27.1,26.3,00.0,36.1,28.9,14.7,0000.0,0014.24,0004.83,0003.83
2021-10-25 17:16:00,,0822.0,4.97,0.00,27.1,26.3,00.0,36.1,28.9,14.5,0000.0,0013.97,0004.82,0003.87
2021-10-25 17:17:00,,0821.9,5.01,0.00,27.1,26.3,00.0,36.1,28.9,14.4,0000.0,0013.85,0004.82,0003.88
2021-10-25 17:18:00,,0821.8,5.00,0.00,27.1,26.4,00.0,36.1,28.9,14.4,0000.0,0014.10,0004.86,0003.88
2021-10-25 17:19:00,,0821.8,5.00,0.00,27.1,26.4,00.0,36.1,28.9,14.3,0000.0,0014.49,0004.87,0003.87
2021-10-25 17:20:00,,0821.8,4.99,0.00,27.1,26.4,00.0,36.1,28.9,14.4,0000.0,0014.41,0004.91,0003.88
2021-10-25 17:21:00,,0821.8,5.01,0.00,27.1,26.4,00.0,36.1,28.9,14.2,0000.0,0014.39,0004.92,0003.87
2021-10-25 17:22:00,,0821.8,4.99,0.00,27.1,26.4,00.0,36.1,28.9,14.2,0000.0,0014.07,0004.92,0003.85
2021-10-25 17:23:00,,0821.8,5.01,0.00,27.1,26.4,00.0,36.1,28.9,14.3,0000.0,0013.46,0004.91,0003.84
2021-10-25 17:24:00,,0821.8,5.00,0.00,27.1,26.4,00.0,36.1,28.9,14.1,0000.0,0012.84,0004.88,0003.83
2021-10-25 17:25:00,,0821.8,5.00,0.00,27.1,26.4,00.0,36.1,29.0,13.8,0000.0,0011.62,0004.87,0003.82
2021-10-25 17:26:00,,0821.8,4.99,0.00,27.2,26.4,00.0,36.1,29.0,13.8,0000.0,0012.71,0004.81,0003.78
2021-10-25 17:27:00,,0821.8,5.01,0.00,27.2,26.4,00.0,36.2,29.0,14.1,0000.0,0013.20,0004.77,0003.75
2021-10-25 17:28:00,,0821.8,5.01,0.00,27.2,26.4,00.0,36.2,29.0,14.0,0000.0,0013.69,0004.69,0003.72
2021-10-25 17:29:00,,0821.9,5.00,0.00,27.2,26.5,00.0,36.2,29.0,13.8,0000.0,0013.37,0004.60,0003.69
2021-10-25 17:30:00,,0821.8,5.00,0.00,27.2,26.5,00.0,36.2,29.0,13.7,0000.0,0012.84,0004.53,0003.68
2021-10-25 17:31:00,,0821.9,4.99,0.00,27.2,26.5,00.0,36.2,29.1,13.7,0000.0,0013.03,0004.46,0003.66
2021-10-25 17:32:00,,0821.8,5.00,0.00,27.2,26.5,00.0,36.2,29.1,13.9,0000.0,0013.57,0004.46,0003.64
2021-10-25 17:33:00,,0821.8,5.00,0.00,27.3,26.5,00.0,36.2,29.1,14.0,0000.0,0013.55,0004.48,0003.64
2021-10-25 17:34:00,,0821.8,4.99,0.00,27.3,26.6,00.0,36.2,29.1,14.0,0000.0,0013.96,0004.46,0003.64
2021-10-25 17:35:00,,0821.8,5.01,0.00,27.3,26.6,00.0,36.2,29.2,14.1,0000.0,0013.90,0004.43,0003.63
2021-10-25 17:36:00,,0821.8,4.99,0.00,27.3,26.6,00.0,36.3,29.2,14.0,0000.0,0013.58,0004.39,0003.63
2021-10-25 17:37:00,,0821.7,5.01,0.00,27.3,26.6,00.0,36.3,29.2,13.9,0000.0,0012.62,0004.41,0003.64
2021-10-25 17:38:00,,0821.8,4.99,0.00,27.3,26.6,00.0,36.3,29.2,13.9,0000.0,0011.69,0004.49,0003.65
2021-10-25 17:39:00,,0821.9,4.99,0.00,27.4,26.7,00.0,36.3,29.2,13.9,0000.0,0011.37,0004.52,0003.67
2021-10-25 17:40:00,,0821.8,5.00,0.00,27.4,26.7,00.0,36.3,29.2,13.7,0000.0,0012.32,0004.56,0003.69
2021-10-25 17:41:00,,0821.8,5.00,0.00,27.4,26.7,00.0,36.3,29.3,13.7,0000.0,0012.52,0004.56,0003.71
2021-10-25 17:42:00,,0821.8,5.00,0.00,27.4,26.7,00.0,36.3,29.3,13.7,0000.0,0012.10,0004.62,0003.73
2021-10-25 17:43:00,,0821.8,4.99,0.00,27.4,26.8,00.0,36.4,29.3,13.7,0000.0,0011.54,0004.56,0003.74
2021-10-25 17:44:00,,0821.8,5.00,0.00,27.5,26.8,00.0,36.4,29.3,13.8,0000.0,0012.23,0004.58,0003.74
2021-10-25 17:45:00,,0821.7,4.99,0.00,27.5,26.8,00.0,36.4,29.4,13.7,0000.0,0011.78,0004.57,0003.75
2021-10-25 17:46:00,,0821.6,4.99,0.00,27.5,26.8,00.0,36.4,29.4,13.7,0000.0,0012.25,0004.58,0003.76
2021-10-25 17:47:00,,0821.6,5.00,0.00,27.5,26.9,00.0,36.4,29.4,13.8,0000.0,0012.45,0004.58,0003.75
2021-10-25 17:48:00,,0821.6,5.00,0.00,27.6,26.9,00.0,36.5,29.4,13.7,0000.0,0012.82,0004.52,0003.75
2021-10-25 17:49:00,,0821.6,5.00,0.00,27.6,26.9,00.0,36.5,29.4,13.6,0000.0,0013.04,0004.47,0003.75
2021-10-25 17:50:00,,0821.6,5.00,0.00,27.6,26.9,00.0,36.5,29.4,13.6,0000.0,0013.04,0004.46,0003.75
2021-10-25 17:51:00,,0821.6,5.00,0.00,27.6,26.9,00.0,36.5,29.4,13.7,0000.0,0012.39,0004.47,0003.76
2021-10-25 17:52:00,,0821.5,5.00,0.00,27.6,26.9,00.0,36.5,29.5,13.8,0000.0,0012.31,0004.54,0003.76
2021-10-25 17:53:00,,0821.5,5.01,0.00,27.6,27.0,00.0,36.6,29.5,13.9,0000.0,0012.09,0004.55,0003.75
2021-10-25 17:54:00,,0821.5,4.99,0.00,27.7,27.0,00.0,36.6,29.5,13.9,0000.0,0012.85,0004.57,0003.74
2021-10-25 17:55:00,,0821.6,5.00,0.00,27.7,27.0,00.0,36.6,29.5,13.7,0000.0,0013.37,0004.57,0003.75
2021-10-25 17:56:00,,0821.5,4.99,0.00,27.7,27.0,00.0,36.6,29.6,13.7,0000.0,0014.50,0004.62,0003.75
2021-10-25 17:57:00,,0821.4,5.00,0.00,27.7,27.0,00.0,36.6,29.6,13.7,0000.0,0014.71,0004.68,0003.76
2021-10-25 17:58:00,,0821.4,4.99,0.00,27.7,27.0,00.0,36.7,29.6,13.6,0000.0,0015.23,0004.72,0003.78
2021-10-25 17:59:00,,0821.4,5.00,0.00,27.8,27.1,00.0,36.7,29.6,13.6,0000.0,0014.86,0004.76,0003.79
